This is the latest recevied weather packets stored in our database for station/object K6CED. If no packets are shown the sender has not sent any weather packets the latest 10 day(s).
| Time | Temp. | Humidity | Pressure | Rain* | Wind** | Luminosity | Snow |
|---|---|---|---|---|---|---|---|
| 1787696120 | 36.11° C | 37% | 1014.9 hPa | 0 mm | - | 637 W/m² | - |
| 1787695819 | 36.11° C | 37% | 1015.2 hPa | 0 mm | - | 651 W/m² | - |
| 1787695515 | 36.67° C | 38% | 1015 hPa | 0 mm | - | 663 W/m² | - |
| 1787695210 | 36.67° C | 37% | 1015 hPa | 0 mm | - | 672 W/m² | - |
| 1787694909 | 36.67° C | 37% | 1015.1 hPa | 0 mm | - | 680 W/m² | - |
| 1787694604 | 36.67° C | 37% | 1015.2 hPa | 0 mm | - | 687 W/m² | - |
| 1787694304 | 36.67° C | 37% | 1015.4 hPa | 0 mm | - | 691 W/m² | - |
| 1787694000 | 36.67° C | 36% | 1015.2 hPa | 0 mm | - | 696 W/m² | - |
| 1787693695 | 36.67° C | 37% | 1015.4 hPa | 0 mm | - | 699 W/m² | - |
| 1787693391 | 37.22° C | 36% | 1015.5 hPa | 0 mm | - | 703 W/m² | - |
| 1787693087 | 37.22° C | 36% | 1015.3 hPa | 0 mm | - | 706 W/m² | - |
| 1787692783 | 37.22° C | 36% | 1015.3 hPa | 0 mm | - | 713 W/m² | - |
| 1787692478 | 36.67° C | 36% | 1015.3 hPa | 0 mm | - | 717 W/m² | - |
| 1787692177 | 36.67° C | 36% | 1015.5 hPa | 0 mm | - | 721 W/m² | - |
| 1787691872 | 37.22° C | 35% | 1015.4 hPa | 0 mm | - | 724 W/m² | - |
| 1787691570 | 36.67° C | 35% | 1015.7 hPa | 0 mm | - | 721 W/m² | - |
| 1787691269 | 36.67° C | 35% | 1015.7 hPa | 0 mm | - | 722 W/m² | - |
| 1787690965 | 36.67° C | 35% | 1015.8 hPa | 0 mm | - | 722 W/m² | - |
| 1787690665 | 36.67° C | 35% | 1015.8 hPa | 0 mm | - | 724 W/m² | - |
| 1787690359 | 37.22° C | 35% | 1015.8 hPa | 0 mm | - | 727 W/m² | - |
| 1787690056 | 36.67° C | 35% | 1015.9 hPa | 0 mm | - | 731 W/m² | - |
| 1787689752 | 36.67° C | 35% | 1016 hPa | 0 mm | - | 738 W/m² | - |
| 1787689447 | 36.11° C | 36% | 1016 hPa | 0 mm | - | 747 W/m² | - |
| 1787689147 | 36.11° C | 37% | 1016.1 hPa | 0 mm | - | 757 W/m² | - |
| 1787688843 | 36.67° C | 36% | 1016.1 hPa | 0 mm | - | 764 W/m² | - |
* Rain latest hour (hover to see other rain measurements)
** Current wind speed in m/s (hover to see current wind gust speed)